SCP
0 0 0 -0 0 0 0 0 0 0 0 0 0 0 0 -0 0 0 0 0 0 0 0 0 0 0 0 0 0 0 0 0 0 0 0 0 0 0 0 0 0 0 0 0 0 0 0 0 0 0 0 0 0 0
0 0 0 -0 -0 0 0 0 0 0 0 0 0 0 0 -0 -0 0 0 0 0 0 0 0 0 0 0 0 0 0 0 0 0 0 0 0 0 0 0 0 0 0 0 0 0 0 0 0 0 0 0 0 0 0
0 0 0 0 -0 0 0 0 0 0 0 0 0 0 0 0 -0 0 0 0 0 0 0 0 0 0 0 0 0 0 0 0 0 0 0 0 0 0 0 0 0 0 0 0 0 0 0 0 0 0 0 0 0 0
-0 0 -0 0 0 -0 0 0 0 0 0 0 0 0 0 0 0 0 0 0 0 0 0 0 0 0 0 0 0 0 0 0 0 0 0 0 0 0 0 0 0 0 0 0 0 0 0 0 0 0 0 0 0 0
0 -0 -0 0 0 0 0 0 0 0 0 0 0 0 0 0 0 0 0 0 0 0 0 0 0 0 0 0 0 0 0 0 0 0 0 0 0 0 0 0 0 0 0 0 0 0 0 0 0 0 0 0 0 0
0 0 -0 -0 0 -0 0 0 0 0 0 0 0 0 0 0 0 0 0 0 0 0 0 0 0 0 0 0 0 0 0 0 0 0 0 0 0 0 0 0 0 0 0 0 0 0 0 0 0 0 0 0 0 0
0 0 -0 -0 -0 -0 0 0 0 0 0 0 0 0 0 0 0 0 0 0 0 0 0 0 0 0 0 0 0 0 0 0 0 0 0 0 0 0 0 0 0 0 0 0 0 0 0 0 0 0 0 0 0 0
-0 0 -0 -0 -0 -0 0 0 0 0 0 0 0 -0 0 0 0 0 0 0 0 0 0 0 0 0 0 0 0 0 0 0 0 0 0 0 0 0 0 0 0 0 0 0 0 0 0 0 0 0 0 0 0 0
-0 -0 -0 0 -0 0 0 0 0 0 0 0 -0 0 0 0 0 0 0 0 0 0 0 0 0 0 0 0 0 0 0 0 0 0 0 0 0 0 0 0 0 0 0 0 0 0 0 0 0 0 0 0 0 -0
0 0 -0 -0 -0 0 0 0 0 0 0 -0 0 0 0 0 0 0 0 0 0 0 0 0 0 0 0 0 0 0 0 0 0 0 0 0 0 0 0 0 0 0 0 0 0 0 0 0 0 0 0 0 0 -0
0 0 0 0 -0 -0 -0 0 0 0 0 0 0 0 0 0 0 0 0 0 0 0 0 0 0 0 0 0 0 0 0 0 0 0 0 0 0 0 0 0 0 0 0 0 0 0 0 0 0 0 0 0 0 -0
0 0 -0 -0 -0 -0 0 0 0 0 0 0 0 0 0 0 0 0 0 0 0 0 0 0 0 0 0 0 0 0 0 0 0 0 0 0 0 0 0 0 0 0 0 0 0 0 0 0 0 0 0 0 -0 -0
0 -0 -0 -0 -0 0 0 0 0 0 0 0 0 0 0 0 0 0 0 0 0 0 0 0 0 0 0 0 0 0 0 0 0 0 0 0 0 0 0 0 0 0 0 0 0 0 0 0 0 0 0 -0 -0 -0
0 -0 -0 0 0 -0 -0 0 0 0 0 0 0 0 0 0 0 0 0 0 0 0 0 0 0 0 0 0 0 0 0 0 0 0 0 0 0 0 0 0 0 0 0 0 0 0 0 0 0 0 0 -0 0 -0
0 0 0 0 0 0 0 0 0 0 0 0 0 0 0 0 0 0 0 0 0 0 0 0 0 0 0 0 0 0 0 0 0 -0 -0 -0 -0 0 0 0 0 0 0 0 0 0 0 0 0 0 0 0 0 0
-0 -0 -0 0 0 0 0 0 0 0 0 0 0 0 0 0 0 0 0 0 0 0 0 0 0 0 0 0 0 0 0 0 0 0 0 0 0 0 0 0 0 0 0 0 0 0 0 0 0 0 0 0 0 0
-0 0 -0 -0 0 -0 0 0 0 0 0 0 0 0 0 0 0 0 0 0 0 0 0 0 0 0 0 0 0 0 0 0 0 0 0 0 0 -0 0 0 0 0 0 0 0 0 0 0 0 0 0 0 0 0
0 0 -0 0 0 0 0 0 0 0 0 0 0 0 0 0 0 0 0 0 0 0 0 0 0 0 0 0 0 0 0 0 0 0 0 0 0 0 0 0 0 0 0 0 0 0 0 0 0 0 0 0 0 0
-0 0 0 0 0 0 0 0 0 0 0 0 0 0 0 0 0 0 0 0 0 0 0 0 0 0 0 0 0 0 0 0 0 0 0 0 0 0 0 0 0 0 0 0 0 0 0 0 0 0 0 0 0 0
0 -0 0 -0 0 0 0 0 0 0 0 0 0 0 0 0 0 0 0 0 0 0 0 0 0 0 0 0 0 0 0 0 0 0 0 0 0 0 0 0 0 0 0 0 0 0 0 0 0 0 0 0 0 0
0 0 0 0 0 0 0 0 0 0 0 0 0 0 0 0 0 0 0 0 0 0 0 0 0 0 0 0 0 0 0 0 0 0 0 0 0 0 0 0 0 0 0 0 0 0 0 0 0 0 0 0 0 0
0 0 0 0 0 0 0 0 0 0 0 0 0 0 0 0 0 0 0 0 0 0 0 0 0 0 0 0 0 0 0 0 0 0 0 0 0 0 0 0 0 0 0 0 0 0 0 0 0 0 0 0 0 0
0 0 0 0 0 0 0 0 0 0 0 0 0 0 0 0 0 0 0 0 0 0 0 0 0 0 0 0 0 0 0 0 0 0 0 0 0 0 0 0 0 0 0 0 0 0 0 0 0 0 0 0 0 0
0 0 0 0 0 0 0 0 0 0 0 0 0 0 0 0 0 0 0 0 0 0 0 0 0 0 0 0 0 0 0 0 0 0 0 0 0 0 0 0 0 0 0 0 0 0 0 0 0 0 0 0 0 0
0 0 0 0 0 0 0 0 0 0 0 0 0 0 0 0 0 0 0 0 0 0 0 0 0 0 0 0 0 0 0 0 0 0 0 0 0 0 0 0 0 0 0 0 0 0 0 0 0 0 0 0 0 0
0 0 0 0 0 0 0 0 0 0 0 0 0 0 0 0 0 0 0 0 0 0 0 0 0 0 0 0 0 0 0 0 0 0 0 0 0 0 0 0 0 0 0 0 0 0 0 0 0 0 0 0 0 0
0 0 0 0 0 0 0 0 0 0 0 0 0 0 0 0 0 0 0 0 0 0 0 0 0 0 0 0 0 0 0 0 0 0 0 0 0 0 0 0 0 0 0 0 0 0 0 0 0 0 0 0 0 0
0 0 0 0 0 0 0 0 0 0 0 0 0 0 0 0 0 0 0 0 0 0 0 0 0 0 0 0 0 0 0 0 0 0 0 0 0 0 0 0 0 0 0 0 0 0 0 0 0 0 0 0 0 0
0 0 0 0 0 0 0 0 0 0 0 0 0 0 0 0 0 0 0 0 0 0 0 0 0 0 0 0 0 0 0 0 0 0 0 0 0 0 0 0 0 0 0 0 0 0 0 0 0 -0 -0 -0 -0 -0
0 0 0 0 0 0 0 0 0 0 0 0 0 0 0 0 0 0 0 0 0 0 0 0 0 0 0 0 0 0 0 0 0 0 0 0 0 0 0 0 -0 -0 -0 0 0 0 -0 0 0 0 0 0 0 0
0 0 0 0 0 0 0 0 0 0 0 0 0 0 0 0 0 0 0 0 0 0 0 0 0 0 0 0 0 0 0 0 0 0 0 0 0 0 0 0 0 0 0 0 0 0 0 0 0 0 0 0 0 0
0 0 0 0 0 0 0 0 0 0 0 0 0 0 0 0 0 0 0 0 0 0 0 0 0 0 0 0 0 -0 -0 0 -0 0 0 0 -0 -0 0 0 0 0 0 -0 -0 -0 -0 -0 -0 -0 -0 -0 0 0
0 0 0 0 0 0 0 0 0 0 0 0 0 0 0 0 0 0 0 0 0 0 0 0 0 0 0 0 0 0 0 0 0 -0 -0 -0 -0 -0 0 -0 -0 -0 -0 -0 -0 -0 -0 -0 -0 -0 -0 -0 -0 0
Wind_Speed_500mb
43 48 52 48 42 45 46 45 44 45 34 31 28 31 33 29 65 64 48 35 30 13 4 8 7 1 3 20 7 15 10 5 5 4 6 6 5 8 4 6 10 12 12 7 7 9 16 29 12 10 6 3 6 9
50 51 52 48 45 44 42 42 41 44 35 31 30 30 26 30 28 60 44 34 26 13 5 12 14 16 12 10 14 34 2 7 16 4 1 4 4 4 3 5 3 5 10 7 12 8 2 35 6 10 1 2 4 11
62 59 54 49 44 41 41 39 44 41 34 31 31 32 26 32 37 68 56 41 33 16 4 6 7 9 15 14 19 12 8 12 10 4 3 2 3 5 7 8 7 7 6 3 6 3 8 21 8 7 1 5 6 10
69 62 55 50 43 38 39 40 38 36 32 28 29 28 27 25 27 66 59 41 35 17 8 6 13 10 8 8 17 18 12 18 13 11 4 3 5 3 0 2 3 2 14 11 4 6 13 14 16 7 3 5 5 9
78 57 53 48 45 36 36 36 34 31 30 26 27 21 25 28 29 46 52 32 43 10 6 8 10 12 10 7 6 10 11 16 10 7 3 4 7 5 2 3 7 18 11 9 8 24 10 16 28 9 5 1 6 9
59 51 55 48 45 40 39 35 36 30 32 30 25 27 18 33 64 66 13 30 56 16 7 4 2 1 7 16 14 11 16 19 12 10 6 7 8 7 4 6 11 37 11 16 11 20 19 29 22 10 6 2 5 9
43 53 54 54 49 42 37 36 34 30 32 27 23 29 20 67 79 43 20 22 60 27 6 5 4 5 4 7 3 10 13 9 7 8 4 9 7 10 4 6 10 25 30 19 21 27 19 22 14 11 9 9 9 12
53 48 44 23 24 35 32 33 30 29 26 24 20 32 29 60 54 21 20 36 62 21 6 5 2 4 6 4 6 8 8 7 3 6 7 5 9 7 10 16 14 26 31 27 27 19 15 26 22 17 13 11 10 13
49 40 21 8 16 25 29 30 29 29 25 19 23 39 71 41 20 28 49 56 38 7 12 5 6 4 8 6 6 4 3 3 2 1 2 4 5 9 13 16 32 40 33 32 29 23 27 27 24 19 14 11 12 18
42 33 13 6 14 17 24 29 31 30 28 26 37 11 11 19 69 70 23 10 11 5 5 4 11 5 6 6 3 4 4 3 2 4 0 4 7 45 41 26 22 37 39 33 40 32 33 29 23 18 13 14 18 25
33 22 12 7 14 19 28 35 36 39 35 35 9 9 61 69 16 10 11 7 6 3 6 7 6 8 6 5 4 3 2 3 2 6 2 4 7 8 27 49 39 28 40 32 31 28 27 25 24 18 13 11 15 21
22 16 10 2 11 23 34 40 43 42 20 19 21 61 25 8 9 9 5 4 3 9 10 9 9 11 10 8 7 1 4 4 5 3 0 6 8 12 12 20 38 35 43 39 31 33 31 26 19 12 7 8 15 21
14 13 5 4 17 30 35 38 36 34 40 44 17 10 6 2 6 10 12 5 5 17 18 15 8 10 9 6 9 4 5 7 1 2 7 9 7 10 9 29 40 42 40 40 37 32 26 19 12 3 5 12 19 25
18 17 5 14 23 30 36 37 38 44 19 8 6 8 3 6 6 2 4 8 11 27 41 33 14 8 6 5 5 7 2 5 3 2 10 5 13 10 16 31 41 43 39 34 30 24 17 9 3 7 13 21 26 32
22 21 16 26 29 31 36 37 36 41 7 7 3 5 3 6 6 9 18 19 25 46 42 23 12 9 3 7 5 7 7 5 10 8 6 11 25 11 27 39 39 38 34 29 22 13 6 7 12 17 23 30 34 40
24 24 28 28 32 47 41 37 45 9 7 5 9 8 4 5 3 7 19 29 39 41 25 11 6 6 1 8 6 11 8 9 7 6 15 31 25 11 31 35 32 28 22 15 9 7 12 17 23 29 36 42 45 49
48 55 30 28 53 55 53 40 11 10 7 6 6 13 6 12 11 7 15 27 50 19 4 7 8 10 4 5 3 7 9 6 3 18 15 4 11 26 27 26 22 17 11 10 14 19 24 30 36 42 47 49 51 49
35 31 40 46 62 46 28 12 9 8 10 9 4 6 11 14 17 14 18 44 15 9 9 6 15 5 9 9 6 6 14 13 13 6 14 22 24 22 17 12 9 8 14 20 26 33 40 46 50 52 53 52 53 54
33 25 28 33 24 11 7 7 8 9 8 9 15 16 14 17 14 19 37 19 14 18 22 6 8 4 6 8 9 8 7 3 13 15 15 14 11 7 8 13 20 26 32 38 44 47 49 52 53 54 56 59 63 64
15 17 22 16 10 7 6 7 8 9 7 6 11 11 11 11 18 33 22 20 17 9 4 3 7 8 9 2 2 4 6 26 22 16 13 13 14 18 22 28 33 37 41 44 46 48 49 51 51 54 57 59 62 63
13 19 15 14 6 9 9 7 10 10 11 8 16 9 12 17 13 10 10 13 3 3 3 14 18 10 6 12 7 17 23 21 11 15 18 25 30 34 36 37 40 43 47 50 51 50 52 56 59 62 64 65 65 66
10 9 9 7 7 8 11 11 11 11 6 10 7 7 8 6 6 6 9 5 8 12 15 12 15 13 19 24 23 22 25 29 31 33 35 38 42 44 45 46 49 51 52 49 50 55 59 61 62 64 66 66 64 61
3 3 4 6 6 8 6 6 5 6 7 2 5 7 4 3 3 9 4 8 13 19 24 26 28 25 21 21 24 27 29 32 35 36 37 39 41 41 43 44 46 47 47 48 52 56 58 59 58 57 56 55 56 56
6 1 2 5 8 3 5 8 7 7 6 5 5 4 2 1 4 2 4 9 18 27 24 21 18 17 17 19 22 20 22 27 26 23 22 24 27 28 32 36 39 42 47 53 55 56 55 52 52 52 51 49 44 40
1 2 1 5 5 7 6 4 5 7 4 1 5 0 3 2 4 1 6 10 25 19 16 19 20 20 24 21 17 15 14 14 15 20 24 31 36 40 42 44 45 47 51 50 48 47 45 44 42 40 36 33 29 22
4 5 5 11 2 7 9 6 7 8 6 3 1 4 4 5 4 10 6 14 18 14 15 12 8 13 17 17 14 14 15 18 24 29 34 38 40 44 48 50 52 49 46 42 41 39 33 30 29 25 21 15 7 3
9 11 11 12 11 14 8 9 8 7 7 11 7 6 5 5 10 10 12 15 17 12 10 10 13 13 11 12 12 16 21 25 28 32 38 42 45 46 45 45 42 39 36 34 30 27 22 18 15 11 6 4 5 7
8 28 15 22 11 11 10 5 9 14 9 15 22 7 16 16 11 6 8 1 4 5 5 10 9 8 7 7 11 19 25 29 32 37 41 44 42 39 37 33 30 27 25 21 18 16 13 9 5 1 5 8 10 14
13 24 29 7 7 9 18 13 13 18 21 31 12 9 10 14 10 9 7 7 6 7 4 1 5 7 12 19 25 29 32 35 39 43 44 39 36 31 26 24 21 17 13 12 11 7 3 4 8 11 14 17 20 22
17 43 15 13 14 14 22 31 15 25 34 28 15 10 10 12 14 18 22 24 23 19 15 14 17 25 32 36 38 37 37 38 37 34 32 28 23 20 17 14 10 8 7 8 9 11 12 14 20 25 27 28 27 25
23 35 9 16 10 16 27 34 24 23 26 28 32 25 24 15 22 23 23 24 25 28 31 32 34 39 41 40 39 36 29 27 26 23 18 13 9 8 5 4 7 10 12 14 17 21 26 31 33 33 32 30 28 24
17 21 13 7 5 8 13 18 14 15 12 12 13 19 16 13 11 20 28 28 29 35 40 40 38 36 33 29 24 23 23 17 11 6 2 3 4 7 10 13 16 20 25 30 33 36 36 36 36 33 30 27 22 18
5 6 5 5 5 7 12 11 11 6 5 6 10 13 18 13 14 16 19 26 29 31 29 24 21 17 18 17 16 13 6 2 5 6 7 11 15 18 21 24 29 34 36 39 40 38 37 35 33 29 24 21 20 20
Wind_Direction_500mb
310 312 308 298 280 273 268 266 263 268 263 261 265 248 260 268 190 198 210 215 203 200 189 189 191 326 195 148 146 131 125 166 148 229 171 193 147 199 113 149 174 164 166 189 182 210 265 144 119 169 149 191 263 290
320 312 306 302 287 277 266 264 258 261 256 253 256 249 239 235 210 195 191 202 194 205 178 236 246 251 232 150 123 168 61 146 172 177 160 102 111 129 198 223 178 231 201 183 187 211 47 171 117 155 65 274 296 320
316 309 302 294 288 274 264 258 250 251 248 251 248 244 240 225 227 196 200 198 187 191 151 174 164 200 227 219 180 149 201 173 181 146 84 71 138 135 166 225 182 244 198 225 49 233 165 184 161 181 290 327 312 317
311 309 302 295 285 269 256 256 248 242 244 249 243 230 231 235 211 191 199 201 190 171 207 161 186 173 189 191 193 180 165 176 162 138 97 171 156 184 234 128 200 134 139 198 238 103 110 181 185 180 352 10 355 342
310 303 304 291 276 260 244 250 240 237 233 232 231 236 226 220 201 189 203 200 185 179 116 119 166 219 222 206 204 212 182 175 156 149 136 201 105 118 80 43 239 183 191 192 223 178 130 165 181 174 184 305 4 8
308 303 302 287 272 251 234 235 229 230 220 223 236 237 254 204 198 179 124 202 193 175 98 98 139 309 229 219 216 213 200 199 194 173 168 128 167 162 196 237 244 203 202 188 173 159 134 152 167 165 177 106 31 31
329 316 309 290 255 238 221 217 217 223 213 215 228 228 249 166 177 160 178 180 183 165 124 97 120 35 82 118 173 197 180 194 200 141 147 134 196 181 245 238 209 197 202 185 167 148 126 161 173 157 135 107 85 57
339 335 335 344 203 198 203 203 206 215 198 202 222 222 199 174 157 139 134 151 164 149 142 108 87 153 144 118 108 130 154 156 85 90 120 182 137 202 252 232 183 176 182 182 183 191 179 166 157 144 131 119 95 59
343 340 344 50 156 185 191 194 203 191 181 190 211 173 155 155 128 121 128 145 153 134 138 141 139 130 137 73 80 53 99 109 64 23 172 175 165 220 227 203 187 190 188 183 174 170 162 162 155 147 135 111 71 46
340 340 321 218 195 194 190 192 181 172 185 172 166 128 106 134 131 118 114 124 173 207 123 93 120 109 136 139 28 90 2 58 166 233 173 228 256 244 244 240 229 213 197 184 166 165 172 172 161 148 123 70 41 32
336 343 329 248 220 196 179 172 167 168 165 156 121 77 135 129 117 95 121 145 138 131 151 120 120 123 127 115 125 47 160 50 111 265 137 254 273 248 251 237 225 210 202 195 199 188 173 163 152 135 101 62 29 20
331 350 345 297 199 182 172 166 171 170 164 165 132 138 138 126 89 92 74 75 182 185 136 128 122 116 131 125 99 24 106 40 236 299 278 266 259 265 282 213 197 192 187 186 182 176 167 157 145 129 97 38 14 2
330 355 7 137 169 165 164 164 167 174 125 119 113 158 152 68 117 159 162 214 181 156 158 148 124 130 121 119 89 110 121 215 40 151 228 234 294 316 235 185 176 175 181 183 174 164 159 154 149 137 5 355 349 342
311 310 281 175 161 164 161 156 162 153 132 90 116 125 200 150 233 159 182 133 120 139 139 130 113 112 131 95 143 112 242 71 345 275 240 255 331 282 200 183 180 174 173 169 162 161 161 163 217 307 328 328 328 328
303 257 192 176 163 164 164 175 174 173 73 81 119 131 121 92 54 98 104 105 116 137 134 112 90 113 95 91 51 93 32 274 201 234 238 323 327 269 192 180 179 174 168 165 168 168 195 265 299 314 316 313 317 316
91 109 161 165 159 172 182 173 169 111 83 72 63 83 95 88 37 89 101 120 137 139 121 101 118 81 102 126 102 205 158 226 247 220 285 303 302 224 183 176 173 170 171 173 189 235 275 297 300 305 306 310 314 311
87 74 144 158 162 167 169 147 108 57 72 77 61 101 101 70 97 130 143 148 147 131 134 119 96 193 102 78 246 185 207 229 329 315 315 313 136 149 158 161 168 181 201 240 271 287 292 295 299 299 299 302 301 303
78 84 107 147 161 147 71 67 81 76 70 58 71 41 70 97 116 138 148 154 141 124 145 170 133 107 159 165 261 251 257 269 306 150 121 124 130 139 152 171 199 239 265 276 282 288 294 296 294 294 296 298 301 303
56 89 107 93 86 80 77 62 62 91 69 78 82 78 89 108 101 140 144 149 136 114 118 112 83 159 219 210 222 283 267 195 145 145 147 146 147 179 232 254 266 274 280 285 287 285 285 288 293 296 297 299 299 299
15 82 68 52 102 73 85 57 77 81 93 101 97 89 87 83 116 138 136 142 135 122 83 107 198 203 185 175 138 198 180 159 151 161 190 215 239 263 280 288 289 287 284 283 284 289 292 293 293 296 297 298 297 297
359 25 56 34 81 85 85 82 70 89 114 100 119 96 98 108 126 157 160 147 121 186 234 223 225 224 227 212 194 188 180 200 264 286 290 292 292 293 292 288 286 283 283 285 287 289 292 297 299 298 297 297 297 295
349 359 9 33 55 80 82 65 97 105 101 118 107 106 107 105 108 149 173 198 230 229 211 228 240 264 256 245 240 244 254 267 272 276 281 283 285 287 288 287 287 287 287 286 288 289 289 291 293 295 296 298 298 298
270 336 9 38 92 60 77 71 110 81 96 134 102 81 32 88 143 158 223 236 251 250 252 255 261 265 260 250 246 248 251 256 262 267 274 279 282 286 290 293 293 291 289 287 287 291 296 300 302 302 304 304 303 301
131 161 50 53 54 93 82 49 64 77 85 47 65 85 335 118 128 75 246 251 247 255 249 255 250 246 248 251 256 266 262 263 272 280 288 291 298 302 295 297 297 296 295 298 301 303 304 306 308 309 308 306 306 305
277 316 89 10 105 96 77 56 19 58 113 269 101 292 257 109 76 254 231 262 248 259 225 220 230 247 261 274 273 262 248 265 284 296 297 300 301 301 301 301 300 300 301 302 304 307 310 308 309 311 313 313 311 308
180 196 143 180 162 125 176 123 175 173 125 90 197 126 88 83 90 242 232 243 254 272 250 240 242 256 263 271 253 230 244 263 276 286 294 298 299 298 300 302 303 306 307 307 309 311 314 314 314 315 316 316 319 345
183 221 175 157 146 140 79 88 124 113 158 178 183 156 113 153 235 249 242 259 270 270 263 251 252 253 249 241 238 253 272 280 288 293 298 298 299 301 303 304 306 308 309 311 313 314 316 317 317 319 333 34 61 68
199 177 166 171 152 168 138 145 157 187 194 159 137 172 175 196 228 212 208 254 18 17 276 216 206 212 229 268 295 300 297 296 297 298 298 299 303 307 308 309 311 313 314 316 317 321 320 315 310 66 92 90 93 96
168 172 153 119 134 186 198 180 202 209 183 171 167 202 226 211 202 204 227 245 265 285 331 230 239 277 300 308 307 304 301 300 301 299 299 305 310 313 313 316 320 324 330 336 342 339 356 117 119 113 109 106 108 108
175 172 155 160 160 208 215 198 208 205 199 201 207 220 230 241 241 245 252 259 258 258 261 275 293 303 303 300 297 295 294 295 297 298 303 309 313 314 319 325 337 357 20 43 52 70 97 111 114 112 113 113 110 105
163 179 161 175 212 204 210 206 207 196 200 216 230 240 251 261 272 282 266 261 264 266 269 271 279 280 278 278 281 282 286 294 299 303 306 308 316 327 347 34 62 77 86 95 102 107 113 114 114 114 112 107 99 92
160 179 161 187 225 194 188 190 194 193 209 219 235 231 244 244 248 262 259 252 261 267 269 274 276 274 272 271 273 283 290 296 295 296 308 356 59 95 103 104 106 107 106 107 109 110 113 113 110 105 100 95 86 71
138 166 146 125 137 177 173 162 168 132 193 228 224 218 215 224 238 250 254 250 255 261 267 269 264 258 263 275 284 286 281 180 140 130 116 119 118 117 117 116 112 111 114 116 115 114 113 109 105 99 89 75 60 51
Wind_Speed_850mb
43 48 52 48 42 45 46 45 44 45 34 31 28 31 33 29 65 64 48 35 30 13 4 8 7 1 3 20 7 15 10 5 5 4 6 6 5 8 4 6 10 12 12 7 7 9 16 29 12 10 6 3 6 9
50 51 52 48 45 44 42 42 41 44 35 31 30 30 26 30 28 60 44 34 26 13 5 12 14 16 12 10 14 34 2 7 16 4 1 4 4 4 3 5 3 5 10 7 12 8 2 35 6 10 1 2 4 11
62 59 54 49 44 41 41 39 44 41 34 31 31 32 26 32 37 68 56 41 33 16 4 6 7 9 15 14 19 12 8 12 10 4 3 2 3 5 7 8 7 7 6 3 6 3 8 21 8 7 1 5 6 10
69 62 55 50 43 38 39 40 38 36 32 28 29 28 27 25 27 66 59 41 35 17 8 6 13 10 8 8 17 18 12 18 13 11 4 3 5 3 0 2 3 2 14 11 4 6 13 14 16 7 3 5 5 9
78 57 53 48 45 36 36 36 34 31 30 26 27 21 25 28 29 46 52 32 43 10 6 8 10 12 10 7 6 10 11 16 10 7 3 4 7 5 2 3 7 18 11 9 8 24 10 16 28 9 5 1 6 9
59 51 55 48 45 40 39 35 36 30 32 30 25 27 18 33 64 66 13 30 56 16 7 4 2 1 7 16 14 11 16 19 12 10 6 7 8 7 4 6 11 37 11 16 11 20 19 29 22 10 6 2 5 9
43 53 54 54 49 42 37 36 34 30 32 27 23 29 20 67 79 43 20 22 60 27 6 5 4 5 4 7 3 10 13 9 7 8 4 9 7 10 4 6 10 25 30 19 21 27 19 22 14 11 9 9 9 12
53 48 44 23 24 35 32 33 30 29 26 24 20 32 29 60 54 21 20 36 62 21 6 5 2 4 6 4 6 8 8 7 3 6 7 5 9 7 10 16 14 26 31 27 27 19 15 26 22 17 13 11 10 13
49 40 21 8 16 25 29 30 29 29 25 19 23 39 71 41 20 28 49 56 38 7 12 5 6 4 8 6 6 4 3 3 2 1 2 4 5 9 13 16 32 40 33 32 29 23 27 27 24 19 14 11 12 18
42 33 13 6 14 17 24 29 31 30 28 26 37 11 11 19 69 70 23 10 11 5 5 4 11 5 6 6 3 4 4 3 2 4 0 4 7 45 41 26 22 37 39 33 40 32 33 29 23 18 13 14 18 25
33 22 12 7 14 19 28 35 36 39 35 35 9 9 61 69 16 10 11 7 6 3 6 7 6 8 6 5 4 3 2 3 2 6 2 4 7 8 27 49 39 28 40 32 31 28 27 25 24 18 13 11 15 21
22 16 10 2 11 23 34 40 43 42 20 19 21 61 25 8 9 9 5 4 3 9 10 9 9 11 10 8 7 1 4 4 5 3 0 6 8 12 12 20 38 35 43 39 31 33 31 26 19 12 7 8 15 21
14 13 5 4 17 30 35 38 36 34 40 44 17 10 6 2 6 10 12 5 5 17 18 15 8 10 9 6 9 4 5 7 1 2 7 9 7 10 9 29 40 42 40 40 37 32 26 19 12 3 5 12 19 25
18 17 5 14 23 30 36 37 38 44 19 8 6 8 3 6 6 2 4 8 11 27 41 33 14 8 6 5 5 7 2 5 3 2 10 5 13 10 16 31 41 43 39 34 30 24 17 9 3 7 13 21 26 32
22 21 16 26 29 31 36 37 36 41 7 7 3 5 3 6 6 9 18 19 25 46 42 23 12 9 3 7 5 7 7 5 10 8 6 11 25 11 27 39 39 38 34 29 22 13 6 7 12 17 23 30 34 40
24 24 28 28 32 47 41 37 45 9 7 5 9 8 4 5 3 7 19 29 39 41 25 11 6 6 1 8 6 11 8 9 7 6 15 31 25 11 31 35 32 28 22 15 9 7 12 17 23 29 36 42 45 49
48 55 30 28 53 55 53 40 11 10 7 6 6 13 6 12 11 7 15 27 50 19 4 7 8 10 4 5 3 7 9 6 3 18 15 4 11 26 27 26 22 17 11 10 14 19 24 30 36 42 47 49 51 49
35 31 40 46 62 46 28 12 9 8 10 9 4 6 11 14 17 14 18 44 15 9 9 6 15 5 9 9 6 6 14 13 13 6 14 22 24 22 17 12 9 8 14 20 26 33 40 46 50 52 53 52 53 54
33 25 28 33 24 11 7 7 8 9 8 9 15 16 14 17 14 19 37 19 14 18 22 6 8 4 6 8 9 8 7 3 13 15 15 14 11 7 8 13 20 26 32 38 44 47 49 52 53 54 56 59 63 64
15 17 22 16 10 7 6 7 8 9 7 6 11 11 11 11 18 33 22 20 17 9 4 3 7 8 9 2 2 4 6 26 22 16 13 13 14 18 22 28 33 37 41 44 46 48 49 51 51 54 57 59 62 63
13 19 15 14 6 9 9 7 10 10 11 8 16 9 12 17 13 10 10 13 3 3 3 14 18 10 6 12 7 17 23 21 11 15 18 25 30 34 36 37 40 43 47 50 51 50 52 56 59 62 64 65 65 66
10 9 9 7 7 8 11 11 11 11 6 10 7 7 8 6 6 6 9 5 8 12 15 12 15 13 19 24 23 22 25 29 31 33 35 38 42 44 45 46 49 51 52 49 50 55 59 61 62 64 66 66 64 61
3 3 4 6 6 8 6 6 5 6 7 2 5 7 4 3 3 9 4 8 13 19 24 26 28 25 21 21 24 27 29 32 35 36 37 39 41 41 43 44 46 47 47 48 52 56 58 59 58 57 56 55 56 56
6 1 2 5 8 3 5 8 7 7 6 5 5 4 2 1 4 2 4 9 18 27 24 21 18 17 17 19 22 20 22 27 26 23 22 24 27 28 32 36 39 42 47 53 55 56 55 52 52 52 51 49 44 40
1 2 1 5 5 7 6 4 5 7 4 1 5 0 3 2 4 1 6 10 25 19 16 19 20 20 24 21 17 15 14 14 15 20 24 31 36 40 42 44 45 47 51 50 48 47 45 44 42 40 36 33 29 22
4 5 5 11 2 7 9 6 7 8 6 3 1 4 4 5 4 10 6 14 18 14 15 12 8 13 17 17 14 14 15 18 24 29 34 38 40 44 48 50 52 49 46 42 41 39 33 30 29 25 21 15 7 3
9 11 11 12 11 14 8 9 8 7 7 11 7 6 5 5 10 10 12 15 17 12 10 10 13 13 11 12 12 16 21 25 28 32 38 42 45 46 45 45 42 39 36 34 30 27 22 18 15 11 6 4 5 7
8 28 15 22 11 11 10 5 9 14 9 15 22 7 16 16 11 6 8 1 4 5 5 10 9 8 7 7 11 19 25 29 32 37 41 44 42 39 37 33 30 27 25 21 18 16 13 9 5 1 5 8 10 14
13 24 29 7 7 9 18 13 13 18 21 31 12 9 10 14 10 9 7 7 6 7 4 1 5 7 12 19 25 29 32 35 39 43 44 39 36 31 26 24 21 17 13 12 11 7 3 4 8 11 14 17 20 22
17 43 15 13 14 14 22 31 15 25 34 28 15 10 10 12 14 18 22 24 23 19 15 14 17 25 32 36 38 37 37 38 37 34 32 28 23 20 17 14 10 8 7 8 9 11 12 14 20 25 27 28 27 25
23 35 9 16 10 16 27 34 24 23 26 28 32 25 24 15 22 23 23 24 25 28 31 32 34 39 41 40 39 36 29 27 26 23 18 13 9 8 5 4 7 10 12 14 17 21 26 31 33 33 32 30 28 24
17 21 13 7 5 8 13 18 14 15 12 12 13 19 16 13 11 20 28 28 29 35 40 40 38 36 33 29 24 23 23 17 11 6 2 3 4 7 10 13 16 20 25 30 33 36 36 36 36 33 30 27 22 18
5 6 5 5 5 7 12 11 11 6 5 6 10 13 18 13 14 16 19 26 29 31 29 24 21 17 18 17 16 13 6 2 5 6 7 11 15 18 21 24 29 34 36 39 40 38 37 35 33 29 24 21 20 20
Wind_Direction_850mb
310 312 308 298 280 273 268 266 263 268 263 261 265 248 260 268 190 198 210 215 203 200 189 189 191 326 195 148 146 131 125 166 148 229 171 193 147 199 113 149 174 164 166 189 182 210 265 144 119 169 149 191 263 290
320 312 306 302 287 277 266 264 258 261 256 253 256 249 239 235 210 195 191 202 194 205 178 236 246 251 232 150 123 168 61 146 172 177 160 102 111 129 198 223 178 231 201 183 187 211 47 171 117 155 65 274 296 320
316 309 302 294 288 274 264 258 250 251 248 251 248 244 240 225 227 196 200 198 187 191 151 174 164 200 227 219 180 149 201 173 181 146 84 71 138 135 166 225 182 244 198 225 49 233 165 184 161 181 290 327 312 317
311 309 302 295 285 269 256 256 248 242 244 249 243 230 231 235 211 191 199 201 190 171 207 161 186 173 189 191 193 180 165 176 162 138 97 171 156 184 234 128 200 134 139 198 238 103 110 181 185 180 352 10 355 342
310 303 304 291 276 260 244 250 240 237 233 232 231 236 226 220 201 189 203 200 185 179 116 119 166 219 222 206 204 212 182 175 156 149 136 201 105 118 80 43 239 183 191 192 223 178 130 165 181 174 184 305 4 8
308 303 302 287 272 251 234 235 229 230 220 223 236 237 254 204 198 179 124 202 193 175 98 98 139 309 229 219 216 213 200 199 194 173 168 128 167 162 196 237 244 203 202 188 173 159 134 152 167 165 177 106 31 31
329 316 309 290 255 238 221 217 217 223 213 215 228 228 249 166 177 160 178 180 183 165 124 97 120 35 82 118 173 197 180 194 200 141 147 134 196 181 245 238 209 197 202 185 167 148 126 161 173 157 135 107 85 57
339 335 335 344 203 198 203 203 206 215 198 202 222 222 199 174 157 139 134 151 164 149 142 108 87 153 144 118 108 130 154 156 85 90 120 182 137 202 252 232 183 176 182 182 183 191 179 166 157 144 131 119 95 59
343 340 344 50 156 185 191 194 203 191 181 190 211 173 155 155 128 121 128 145 153 134 138 141 139 130 137 73 80 53 99 109 64 23 172 175 165 220 227 203 187 190 188 183 174 170 162 162 155 147 135 111 71 46
340 340 321 218 195 194 190 192 181 172 185 172 166 128 106 134 131 118 114 124 173 207 123 93 120 109 136 139 28 90 2 58 166 233 173 228 256 244 244 240 229 213 197 184 166 165 172 172 161 148 123 70 41 32
336 343 329 248 220 196 179 172 167 168 165 156 121 77 135 129 117 95 121 145 138 131 151 120 120 123 127 115 125 47 160 50 111 265 137 254 273 248 251 237 225 210 202 195 199 188 173 163 152 135 101 62 29 20
331 350 345 297 199 182 172 166 171 170 164 165 132 138 138 126 89 92 74 75 182 185 136 128 122 116 131 125 99 24 106 40 236 299 278 266 259 265 282 213 197 192 187 186 182 176 167 157 145 129 97 38 14 2
330 355 7 137 169 165 164 164 167 174 125 119 113 158 152 68 117 159 162 214 181 156 158 148 124 130 121 119 89 110 121 215 40 151 228 234 294 316 235 185 176 175 181 183 174 164 159 154 149 137 5 355 349 342
311 310 281 175 161 164 161 156 162 153 132 90 116 125 200 150 233 159 182 133 120 139 139 130 113 112 131 95 143 112 242 71 345 275 240 255 331 282 200 183 180 174 173 169 162 161 161 163 217 307 328 328 328 328
303 257 192 176 163 164 164 175 174 173 73 81 119 131 121 92 54 98 104 105 116 137 134 112 90 113 95 91 51 93 32 274 201 234 238 323 327 269 192 180 179 174 168 165 168 168 195 265 299 314 316 313 317 316
91 109 161 165 159 172 182 173 169 111 83 72 63 83 95 88 37 89 101 120 137 139 121 101 118 81 102 126 102 205 158 226 247 220 285 303 302 224 183 176 173 170 171 173 189 235 275 297 300 305 306 310 314 311
87 74 144 158 162 167 169 147 108 57 72 77 61 101 101 70 97 130 143 148 147 131 134 119 96 193 102 78 246 185 207 229 329 315 315 313 136 149 158 161 168 181 201 240 271 287 292 295 299 299 299 302 301 303
78 84 107 147 161 147 71 67 81 76 70 58 71 41 70 97 116 138 148 154 141 124 145 170 133 107 159 165 261 251 257 269 306 150 121 124 130 139 152 171 199 239 265 276 282 288 294 296 294 294 296 298 301 303
56 89 107 93 86 80 77 62 62 91 69 78 82 78 89 108 101 140 144 149 136 114 118 112 83 159 219 210 222 283 267 195 145 145 147 146 147 179 232 254 266 274 280 285 287 285 285 288 293 296 297 299 299 299
15 82 68 52 102 73 85 57 77 81 93 101 97 89 87 83 116 138 136 142 135 122 83 107 198 203 185 175 138 198 180 159 151 161 190 215 239 263 280 288 289 287 284 283 284 289 292 293 293 296 297 298 297 297
359 25 56 34 81 85 85 82 70 89 114 100 119 96 98 108 126 157 160 147 121 186 234 223 225 224 227 212 194 188 180 200 264 286 290 292 292 293 292 288 286 283 283 285 287 289 292 297 299 298 297 297 297 295
349 359 9 33 55 80 82 65 97 105 101 118 107 106 107 105 108 149 173 198 230 229 211 228 240 264 256 245 240 244 254 267 272 276 281 283 285 287 288 287 287 287 287 286 288 289 289 291 293 295 296 298 298 298
270 336 9 38 92 60 77 71 110 81 96 134 102 81 32 88 143 158 223 236 251 250 252 255 261 265 260 250 246 248 251 256 262 267 274 279 282 286 290 293 293 291 289 287 287 291 296 300 302 302 304 304 303 301
131 161 50 53 54 93 82 49 64 77 85 47 65 85 335 118 128 75 246 251 247 255 249 255 250 246 248 251 256 266 262 263 272 280 288 291 298 302 295 297 297 296 295 298 301 303 304 306 308 309 308 306 306 305
277 316 89 10 105 96 77 56 19 58 113 269 101 292 257 109 76 254 231 262 248 259 225 220 230 247 261 274 273 262 248 265 284 296 297 300 301 301 301 301 300 300 301 302 304 307 310 308 309 311 313 313 311 308
180 196 143 180 162 125 176 123 175 173 125 90 197 126 88 83 90 242 232 243 254 272 250 240 242 256 263 271 253 230 244 263 276 286 294 298 299 298 300 302 303 306 307 307 309 311 314 314 314 315 316 316 319 345
183 221 175 157 146 140 79 88 124 113 158 178 183 156 113 153 235 249 242 259 270 270 263 251 252 253 249 241 238 253 272 280 288 293 298 298 299 301 303 304 306 308 309 311 313 314 316 317 317 319 333 34 61 68
199 177 166 171 152 168 138 145 157 187 194 159 137 172 175 196 228 212 208 254 18 17 276 216 206 212 229 268 295 300 297 296 297 298 298 299 303 307 308 309 311 313 314 316 317 321 320 315 310 66 92 90 93 96
168 172 153 119 134 186 198 180 202 209 183 171 167 202 226 211 202 204 227 245 265 285 331 230 239 277 300 308 307 304 301 300 301 299 299 305 310 313 313 316 320 324 330 336 342 339 356 117 119 113 109 106 108 108
175 172 155 160 160 208 215 198 208 205 199 201 207 220 230 241 241 245 252 259 258 258 261 275 293 303 303 300 297 295 294 295 297 298 303 309 313 314 319 325 337 357 20 43 52 70 97 111 114 112 113 113 110 105
163 179 161 175 212 204 210 206 207 196 200 216 230 240 251 261 272 282 266 261 264 266 269 271 279 280 278 278 281 282 286 294 299 303 306 308 316 327 347 34 62 77 86 95 102 107 113 114 114 114 112 107 99 92
160 179 161 187 225 194 188 190 194 193 209 219 235 231 244 244 248 262 259 252 261 267 269 274 276 274 272 271 273 283 290 296 295 296 308 356 59 95 103 104 106 107 106 107 109 110 113 113 110 105 100 95 86 71
138 166 146 125 137 177 173 162 168 132 193 228 224 218 215 224 238 250 254 250 255 261 267 269 264 258 263 275 284 286 281 180 140 130 116 119 118 117 117 116 112 111 114 116 115 114 113 109 105 99 89 75 60 51